Voltar ao catálogo

FENGYUN 1C DEB

AtivoSSO
NORAD 30080·DEBRIS·🇨🇳 China

Lançado May 10, 1999 de Taiyuan Satellite Launch Center

Loading…

Próximas Passagens (próximas 24 horas)

TLE

AtualizadoSource: Space-Track

Época: Sep 14, 2026, 10:06 UTC

1 30080U 99025QH  26257.42112632  .00000221  00000-0  13519-3 0  9996
2 30080  98.7284 234.8152 0132858 358.2925 163.5003 14.11010503 11250

Acompanhe FENGYUN 1C DEB em tempo real com AllMySat

Download on the App Store